QPF
0.00 0.00 0.00 0.00 0.00 0.01 0.01 0.01 0.01 0.01 0.03 0.02 0.03 0.03 0.03 0.04 0.05 0.05 0.06 0.05 0.04 0.03 0.02 0.01 0.01 0.01 0.01 0.01 0.01 0.01 0.01 0.02 0.02 0.04 0.04 0.02 0.01 0.01 0.01 0.02 0.03 0.04 0.03 0.01
0.00 0.00 0.00 0.00 0.00 0.00 0.01 0.01 0.01 0.01 0.01 0.02 0.02 0.02 0.02 0.03 0.04 0.04 0.04 0.04 0.03 0.04 0.03 0.03 0.03 0.02 0.02 0.02 0.02 0.01 0.01 0.02 0.02 0.03 0.02 0.02 0.02 0.02 0.02 0.01 0.02 0.03 0.03 0.02
0.00 0.00 0.00 0.00 0.00 0.00 0.01 0.01 0.00 0.00 0.00 0.01 0.02 0.02 0.02 0.02 0.03 0.03 0.03 0.02 0.03 0.03 0.03 0.03 0.03 0.02 0.02 0.03 0.03 0.03 0.02 0.02 0.02 0.02 0.02 0.02 0.03 0.03 0.02 0.01 0.02 0.03 0.03 0.02
0.00 0.00 0.01 0.01 0.01 0.01 0.01 0.00 0.00 0.00 0.00 0.01 0.02 0.02 0.02 0.02 0.03 0.04 0.03 0.03 0.03 0.02 0.02 0.02 0.03 0.02 0.02 0.02 0.02 0.02 0.03 0.04 0.04 0.03 0.03 0.03 0.02 0.01 0.01 0.01 0.02 0.02 0.03 0.03
0.00 0.00 0.00 0.01 0.01 0.01 0.01 0.00 0.00 0.00 0.00 0.01 0.01 0.03 0.02 0.02 0.03 0.03 0.03 0.04 0.04 0.03 0.03 0.03 0.03 0.02 0.02 0.01 0.01 0.01 0.01 0.02 0.04 0.04 0.03 0.03 0.03 0.02 0.01 0.02 0.03 0.03 0.03 0.03
0.00 0.00 0.00 0.00 0.00 0.01 0.00 0.00 0.00 0.00 0.01 0.00 0.01 0.02 0.03 0.03 0.03 0.03 0.03 0.03 0.04 0.03 0.03 0.03 0.03 0.02 0.01 0.01 0.01 0.00 0.00 0.01 0.03 0.04 0.04 0.04 0.03 0.02 0.02 0.02 0.03 0.02 0.03 0.03
0.00 0.00 0.00 0.00 0.00 0.01 0.00 0.00 0.00 0.01 0.01 0.01 0.01 0.02 0.04 0.04 0.02 0.02 0.02 0.02 0.04 0.04 0.03 0.02 0.02 0.02 0.01 0.01 0.01 0.00 0.01 0.02 0.02 0.03 0.05 0.05 0.04 0.03 0.03 0.02 0.02 0.02 0.03 0.03
0.00 0.00 0.00 0.00 0.00 0.00 0.00 0.00 0.00 0.01 0.01 0.00 0.01 0.03 0.06 0.03 0.02 0.02 0.02 0.02 0.03 0.04 0.03 0.02 0.02 0.02 0.01 0.01 0.01 0.01 0.02 0.02 0.01 0.02 0.03 0.05 0.06 0.04 0.03 0.03 0.03 0.03 0.03 0.03
0.00 0.00 0.00 0.00 0.00 0.00 0.00 0.00 0.00 0.00 0.00 0.00 0.01 0.03 0.04 0.02 0.01 0.01 0.02 0.01 0.02 0.02 0.02 0.02 0.02 0.02 0.01 0.01 0.01 0.01 0.01 0.01 0.02 0.01 0.02 0.02 0.03 0.03 0.03 0.04 0.05 0.05 0.04 0.04
0.00 0.00 0.00 0.00 0.00 0.00 0.00 0.00 0.00 0.00 0.00 0.01 0.02 0.04 0.03 0.02 0.01 0.01 0.02 0.01 0.01 0.01 0.02 0.02 0.02 0.02 0.01 0.01 0.01 0.01 0.00 0.01 0.01 0.01 0.01 0.02 0.02 0.03 0.05 0.06 0.07 0.07 0.08 0.08
0.00 0.00 0.00 0.00 0.00 0.00 0.00 0.00 0.00 0.01 0.01 0.01 0.02 0.04 0.03 0.02 0.02 0.01 0.01 0.01 0.01 0.01 0.02 0.02 0.02 0.03 0.02 0.01 0.00 0.00 0.00 0.00 0.01 0.01 0.00 0.01 0.01 0.02 0.05 0.05 0.07 0.08 0.08 0.09
0.00 0.00 0.00 0.00 0.00 0.00 0.00 0.00 0.00 0.01 0.01 0.02 0.02 0.03 0.03 0.02 0.02 0.01 0.01 0.01 0.01 0.01 0.01 0.03 0.04 0.04 0.03 0.01 0.00 0.00 0.00 0.00 0.00 0.01 0.01 0.01 0.02 0.02 0.03 0.04 0.04 0.05 0.07 0.08
0.00 0.00 0.00 0.00 0.00 0.00 0.00 0.00 0.00 0.00 0.01 0.01 0.03 0.04 0.02 0.02 0.02 0.01 0.01 0.01 0.01 0.01 0.01 0.02 0.04 0.05 0.03 0.02 0.01 0.01 0.00 0.00 0.00 0.01 0.01 0.02 0.02 0.02 0.03 0.04 0.03 0.04 0.05 0.06
0.00 0.00 0.00 0.00 0.00 0.00 0.00 0.00 0.00 0.00 0.01 0.02 0.03 0.03 0.01 0.01 0.01 0.02 0.01 0.01 0.00 0.01 0.01 0.01 0.02 0.03 0.04 0.03 0.02 0.01 0.01 0.00 0.00 0.01 0.01 0.02 0.02 0.03 0.04 0.05 0.04 0.03 0.03 0.04
0.00 0.00 0.00 0.00 0.00 0.00 0.00 0.00 0.00 0.00 0.01 0.02 0.02 0.01 0.01 0.00 0.01 0.01 0.01 0.01 0.00 0.00 0.00 0.01 0.01 0.03 0.04 0.04 0.04 0.03 0.02 0.01 0.00 0.01 0.01 0.01 0.02 0.05 0.05 0.05 0.04 0.03 0.02 0.03
0.00 0.00 0.00 0.00 0.00 0.00 0.00 0.00 0.00 0.00 0.01 0.01 0.01 0.01 0.01 0.00 0.00 0.01 0.01 0.01 0.00 0.00 0.01 0.01 0.01 0.01 0.03 0.03 0.05 0.04 0.03 0.02 0.01 0.00 0.01 0.01 0.02 0.06 0.08 0.07 0.06 0.04 0.03 0.03
0.00 0.00 0.00 0.00 0.00 0.00 0.00 0.00 0.00 0.00 0.00 0.00 0.01 0.01 0.01 0.01 0.01 0.01 0.01 0.01 0.01 0.00 0.00 0.01 0.01 0.01 0.01 0.02 0.02 0.04 0.04 0.04 0.03 0.02 0.01 0.01 0.01 0.03 0.07 0.07 0.08 0.06 0.03 0.03
0.00 0.00 0.00 0.00 0.00 0.00 0.01 0.00 0.00 0.00 0.00 0.00 0.00 0.00 0.01 0.01 0.01 0.01 0.01 0.01 0.01 0.01 0.01 0.00 0.01 0.01 0.01 0.01 0.02 0.03 0.03 0.04 0.04 0.03 0.02 0.01 0.02 0.03 0.07 0.05 0.06 0.05 0.04 0.03
0.00 0.00 0.01 0.01 0.01 0.01 0.00 0.00 0.00 0.00 0.01 0.01 0.00 0.00 0.00 0.01 0.01 0.02 0.02 0.01 0.01 0.01 0.01 0.01 0.01 0.01 0.01 0.01 0.01 0.02 0.03 0.03 0.04 0.04 0.03 0.02 0.02 0.02 0.05 0.06 0.06 0.05 0.04 0.03
0.01 0.01 0.01 0.01 0.01 0.01 0.00 0.00 0.00 0.00 0.01 0.00 0.00 0.00 0.00 0.00 0.00 0.01 0.01 0.01 0.01 0.01 0.01 0.02 0.02 0.01 0.01 0.01 0.01 0.02 0.03 0.04 0.04 0.04 0.04 0.04 0.02 0.02 0.03 0.05 0.04 0.03 0.03 0.03
0.00 0.00 0.01 0.01 0.01 0.01 0.00 0.00 0.00 0.00 0.00 0.00 0.00 0.00 0.00 0.00 0.00 0.00 0.00 0.00 0.00 0.01 0.01 0.01 0.01 0.01 0.01 0.00 0.00 0.01 0.02 0.02 0.03 0.05 0.04 0.04 0.03 0.02 0.02 0.04 0.03 0.02 0.02 0.02
0.00 0.00 0.01 0.01 0.01 0.01 0.00 0.00 0.00 0.00 0.00 0.00 0.00 0.00 0.00 0.00 0.00 0.00 0.00 0.00 0.00 0.01 0.01 0.01 0.01 0.01 0.01 0.01 0.01 0.01 0.01 0.01 0.02 0.04 0.05 0.04 0.03 0.03 0.03 0.03 0.03 0.02 0.01 0.01
0.01 0.01 0.01 0.01 0.01 0.00 0.00 0.00 0.00 0.00 0.00 0.00 0.00 0.00 0.00 0.00 0.00 0.00 0.00 0.00 0.00 0.01 0.01 0.00 0.01 0.01 0.01 0.01 0.01 0.01 0.01 0.02 0.02 0.02 0.04 0.05 0.04 0.03 0.02 0.03 0.03 0.03 0.02 0.02
0.00 0.00 0.00 0.00 0.00 0.00 0.00 0.00 0.01 0.01 0.01 0.01 0.00 0.01 0.01 0.01 0.00 0.00 0.00 0.01 0.01 0.01 0.01 0.01 0.01 0.01 0.01 0.01 0.01 0.01 0.01 0.01 0.01 0.01 0.01 0.03 0.04 0.03 0.03 0.03 0.04 0.04 0.03 0.02
0.00 0.00 0.00 0.00 0.00 0.00 0.01 0.01 0.01 0.01 0.00 0.00 0.00 0.00 0.00 0.01 0.00 0.00 0.00 0.01 0.00 0.00 0.00 0.01 0.01 0.01 0.01 0.01 0.01 0.01 0.01 0.01 0.01 0.01 0.01 0.02 0.03 0.03 0.04 0.04 0.04 0.05 0.04 0.03
0.00 0.00 0.00 0.01 0.00 0.00 0.01 0.01 0.00 0.00 0.00 0.00 0.00 0.00 0.00 0.00 0.00 0.00 0.00 0.00 0.00 0.00 0.01 0.01 0.01 0.01 0.01 0.01 0.01 0.01 0.01 0.01 0.01 0.01 0.01 0.01 0.02 0.03 0.03 0.04 0.04 0.05 0.06 0.06
MSLP
1013.69 1014.12 1014.47 1014.72 1014.89 1015.01 1015.09 1015.19 1015.30 1015.43 1015.56 1015.66 1015.71 1015.69 1015.58 1015.39 1015.14 1014.87 1014.60 1014.38 1014.22 1014.12 1014.10 1014.12 1014.16 1014.21 1014.25 1014.28 1014.30 1014.33 1014.39 1014.51 1014.68 1014.91 1015.19 1015.50 1015.82 1016.13 1016.42 1016.67 1016.90 1017.13 1017.37 1017.66
1014.34 1014.68 1014.91 1015.04 1015.10 1015.14 1015.20 1015.32 1015.51 1015.74 1016.00 1016.24 1016.40 1016.45 1016.39 1016.20 1015.94 1015.64 1015.35 1015.11 1014.95 1014.87 1014.87 1014.91 1014.96 1015.00 1014.99 1014.95 1014.87 1014.79 1014.74 1014.75 1014.83 1014.99 1015.22 1015.49 1015.79 1016.08 1016.34 1016.58 1016.79 1017.01 1017.25 1017.54
1014.97 1015.20 1015.31 1015.32 1015.30 1015.28 1015.34 1015.50 1015.79 1016.15 1016.55 1016.93 1017.22 1017.37 1017.35 1017.19 1016.92 1016.59 1016.27 1016.00 1015.83 1015.75 1015.75 1015.80 1015.86 1015.87 1015.83 1015.72 1015.56 1015.38 1015.22 1015.11 1015.09 1015.16 1015.32 1015.53 1015.78 1016.03 1016.26 1016.47 1016.66 1016.86 1017.10 1017.40
1015.59 1015.71 1015.71 1015.63 1015.53 1015.49 1015.56 1015.79 1016.18 1016.69 1017.24 1017.76 1018.17 1018.41 1018.46 1018.32 1018.03 1017.67 1017.31 1017.00 1016.79 1016.69 1016.68 1016.72 1016.76 1016.75 1016.68 1016.52 1016.29 1016.03 1015.77 1015.57 1015.45 1015.43 1015.49 1015.62 1015.79 1015.98 1016.17 1016.34 1016.51 1016.69 1016.93 1017.23
1016.22 1016.24 1016.14 1015.98 1015.83 1015.78 1015.88 1016.19 1016.69 1017.33 1018.02 1018.68 1019.21 1019.54 1019.63 1019.51 1019.21 1018.81 1018.40 1018.04 1017.77 1017.63 1017.58 1017.59 1017.61 1017.58 1017.48 1017.28 1017.01 1016.69 1016.37 1016.09 1015.88 1015.77 1015.74 1015.78 1015.87 1015.98 1016.09 1016.21 1016.34 1016.50 1016.72 1017.02
1016.89 1016.82 1016.63 1016.40 1016.22 1016.16 1016.30 1016.67 1017.27 1018.02 1018.83 1019.60 1020.22 1020.62 1020.77 1020.65 1020.34 1019.91 1019.45 1019.03 1018.71 1018.51 1018.41 1018.39 1018.38 1018.33 1018.21 1018.00 1017.71 1017.36 1017.00 1016.67 1016.39 1016.19 1016.07 1016.02 1016.01 1016.03 1016.06 1016.10 1016.18 1016.30 1016.49 1016.77
1017.61 1017.45 1017.18 1016.89 1016.67 1016.61 1016.77 1017.19 1017.85 1018.68 1019.58 1020.43 1021.12 1021.57 1021.75 1021.66 1021.35 1020.90 1020.40 1019.94 1019.57 1019.32 1019.18 1019.12 1019.08 1019.02 1018.89 1018.68 1018.39 1018.04 1017.66 1017.30 1016.97 1016.71 1016.51 1016.35 1016.24 1016.15 1016.08 1016.03 1016.03 1016.08 1016.22 1016.46
1018.38 1018.12 1017.78 1017.43 1017.16 1017.08 1017.25 1017.69 1018.38 1019.25 1020.19 1021.08 1021.81 1022.31 1022.53 1022.46 1022.16 1021.72 1021.23 1020.75 1020.36 1020.08 1019.91 1019.82 1019.76 1019.69 1019.56 1019.35 1019.07 1018.73 1018.36 1017.98 1017.63 1017.31 1017.03 1016.78 1016.56 1016.36 1016.17 1016.01 1015.91 1015.87 1015.93 1016.11
1019.13 1018.79 1018.38 1017.97 1017.67 1017.55 1017.70 1018.13 1018.82 1019.69 1020.64 1021.54 1022.30 1022.82 1023.07 1023.05 1022.80 1022.40 1021.94 1021.49 1021.11 1020.83 1020.65 1020.54 1020.47 1020.38 1020.25 1020.05 1019.77 1019.45 1019.08 1018.69 1018.32 1017.95 1017.61 1017.28 1016.95 1016.63 1016.32 1016.04 1015.81 1015.67 1015.63 1015.73
1019.82 1019.42 1018.94 1018.49 1018.15 1018.01 1018.13 1018.54 1019.20 1020.04 1020.96 1021.85 1022.61 1023.15 1023.44 1023.48 1023.30 1022.98 1022.59 1022.21 1021.87 1021.62 1021.44 1021.32 1021.23 1021.13 1020.98 1020.76 1020.49 1020.16 1019.79 1019.40 1019.00 1018.60 1018.20 1017.79 1017.37 1016.94 1016.50 1016.10 1015.75 1015.48 1015.34 1015.34
1020.39 1019.93 1019.43 1018.95 1018.59 1018.44 1018.55 1018.94 1019.57 1020.37 1021.25 1022.11 1022.85 1023.41 1023.74 1023.84 1023.75 1023.53 1023.24 1022.94 1022.67 1022.46 1022.30 1022.18 1022.06 1021.92 1021.73 1021.48 1021.18 1020.83 1020.44 1020.03 1019.61 1019.17 1018.72 1018.25 1017.75 1017.22 1016.69 1016.17 1015.70 1015.33 1015.08 1014.98
1020.78 1020.32 1019.82 1019.36 1019.03 1018.91 1019.03 1019.41 1020.01 1020.78 1021.62 1022.43 1023.15 1023.71 1024.07 1024.23 1024.23 1024.11 1023.93 1023.72 1023.53 1023.36 1023.22 1023.07 1022.91 1022.71 1022.46 1022.15 1021.79 1021.39 1020.96 1020.52 1020.07 1019.60 1019.11 1018.59 1018.04 1017.44 1016.83 1016.23 1015.67 1015.20 1014.86 1014.67
1021.02 1020.59 1020.14 1019.75 1019.49 1019.44 1019.61 1020.02 1020.62 1021.35 1022.15 1022.92 1023.60 1024.13 1024.51 1024.71 1024.78 1024.75 1024.66 1024.54 1024.40 1024.27 1024.12 1023.95 1023.73 1023.45 1023.10 1022.70 1022.25 1021.78 1021.29 1020.80 1020.32 1019.82 1019.31 1018.77 1018.18 1017.56 1016.91 1016.25 1015.64 1015.10 1014.69 1014.43
1021.15 1020.78 1020.43 1020.16 1020.03 1020.09 1020.35 1020.81 1021.43 1022.15 1022.89 1023.61 1024.23 1024.72 1025.08 1025.29 1025.40 1025.42 1025.39 1025.33 1025.23 1025.11 1024.95 1024.72 1024.42 1024.04 1023.59 1023.08 1022.53 1021.96 1021.41 1020.86 1020.34 1019.82 1019.30 1018.75 1018.17 1017.54 1016.88 1016.22 1015.58 1015.02 1014.56 1014.25
1021.26 1020.99 1020.77 1020.66 1020.68 1020.88 1021.26 1021.79 1022.44 1023.14 1023.84 1024.48 1025.02 1025.44 1025.75 1025.94 1026.04 1026.08 1026.07 1026.03 1025.95 1025.81 1025.61 1025.32 1024.93 1024.45 1023.89 1023.26 1022.60 1021.94 1021.30 1020.70 1020.14 1019.60 1019.07 1018.54 1017.97 1017.37 1016.74 1016.10 1015.47 1014.90 1014.42 1014.07
1021.47 1021.32 1021.25 1021.30 1021.49 1021.84 1022.33 1022.93 1023.59 1024.27 1024.90 1025.44 1025.88 1026.21 1026.43 1026.56 1026.62 1026.64 1026.62 1026.57 1026.47 1026.31 1026.06 1025.70 1025.23 1024.65 1023.98 1023.25 1022.49 1021.74 1021.03 1020.37 1019.76 1019.20 1018.68 1018.15 1017.62 1017.05 1016.46 1015.86 1015.26 1014.70 1014.22 1013.84
1021.89 1021.86 1021.92 1022.12 1022.45 1022.92 1023.50 1024.14 1024.80 1025.42 1025.95 1026.39 1026.71 1026.91 1027.02 1027.06 1027.06 1027.03 1026.98 1026.90 1026.77 1026.57 1026.27 1025.86 1025.31 1024.66 1023.90 1023.08 1022.24 1021.42 1020.64 1019.92 1019.27 1018.69 1018.15 1017.63 1017.11 1016.58 1016.03 1015.46 1014.90 1014.37 1013.90 1013.51
1022.60 1022.65 1022.82 1023.12 1023.55 1024.09 1024.69 1025.33 1025.93 1026.46 1026.88 1027.19 1027.36 1027.44 1027.44 1027.38 1027.30 1027.22 1027.12 1027.00 1026.84 1026.61 1026.27 1025.81 1025.22 1024.51 1023.70 1022.83 1021.93 1021.04 1020.21 1019.44 1018.75 1018.12 1017.55 1017.01 1016.48 1015.96 1015.42 1014.89 1014.35 1013.85 1013.39 1012.99
1023.59 1023.69 1023.91 1024.26 1024.71 1025.24 1025.81 1026.38 1026.88 1027.29 1027.57 1027.73 1027.78 1027.73 1027.62 1027.48 1027.34 1027.20 1027.07 1026.92 1026.73 1026.47 1026.11 1025.62 1025.01 1024.27 1023.44 1022.54 1021.61 1020.68 1019.80 1018.98 1018.22 1017.53 1016.90 1016.31 1015.74 1015.18 1014.64 1014.10 1013.58 1013.09 1012.64 1012.25
1024.79 1024.90 1025.11 1025.43 1025.84 1026.29 1026.77 1027.21 1027.57 1027.83 1027.97 1028.00 1027.93 1027.78 1027.59 1027.40 1027.21 1027.04 1026.88 1026.71 1026.51 1026.23 1025.86 1025.36 1024.74 1024.00 1023.16 1022.26 1021.31 1020.36 1019.44 1018.56 1017.73 1016.95 1016.23 1015.54 1014.89 1014.26 1013.67 1013.10 1012.58 1012.10 1011.67 1011.30
1026.07 1026.14 1026.30 1026.54 1026.83 1027.16 1027.48 1027.76 1027.96 1028.07 1028.08 1028.00 1027.84 1027.63 1027.41 1027.19 1026.99 1026.81 1026.64 1026.46 1026.25 1025.96 1025.58 1025.07 1024.46 1023.73 1022.90 1022.00 1021.05 1020.08 1019.12 1018.17 1017.26 1016.37 1015.52 1014.71 1013.93 1013.20 1012.52 1011.91 1011.35 1010.88 1010.48 1010.15
1027.25 1027.27 1027.34 1027.46 1027.60 1027.77 1027.91 1028.02 1028.07 1028.04 1027.95 1027.79 1027.59 1027.37 1027.15 1026.94 1026.75 1026.59 1026.42 1026.24 1026.01 1025.70 1025.30 1024.79 1024.17 1023.45 1022.63 1021.74 1020.79 1019.81 1018.81 1017.79 1016.78 1015.77 1014.78 1013.81 1012.89 1012.02 1011.23 1010.54 1009.95 1009.47 1009.10 1008.84
1028.19 1028.14 1028.11 1028.09 1028.08 1028.08 1028.06 1028.01 1027.93 1027.81 1027.65 1027.47 1027.27 1027.08 1026.90 1026.73 1026.59 1026.44 1026.28 1026.08 1025.83 1025.49 1025.06 1024.53 1023.89 1023.16 1022.35 1021.46 1020.51 1019.51 1018.46 1017.38 1016.26 1015.12 1013.98 1012.86 1011.77 1010.75 1009.84 1009.06 1008.42 1007.93 1007.60 1007.40
1028.78 1028.66 1028.53 1028.39 1028.25 1028.10 1027.95 1027.79 1027.62 1027.45 1027.28 1027.12 1026.97 1026.84 1026.73 1026.62 1026.52 1026.40 1026.23 1026.01 1025.71 1025.33 1024.84 1024.26 1023.59 1022.84 1022.01 1021.12 1020.16 1019.14 1018.05 1016.90 1015.69 1014.43 1013.15 1011.86 1010.62 1009.45 1008.41 1007.53 1006.83 1006.33 1006.03 1005.90
1028.98 1028.80 1028.59 1028.36 1028.12 1027.88 1027.65 1027.43 1027.23 1027.07 1026.93 1026.83 1026.76 1026.71 1026.67 1026.64 1026.57 1026.46 1026.27 1026.01 1025.65 1025.19 1024.63 1023.98 1023.26 1022.47 1021.62 1020.71 1019.74 1018.70 1017.58 1016.37 1015.08 1013.72 1012.31 1010.88 1009.49 1008.18 1007.02 1006.04 1005.27 1004.74 1004.44 1004.36
1028.82 1028.60 1028.34 1028.07 1027.78 1027.50 1027.25 1027.03 1026.86 1026.73 1026.67 1026.65 1026.67 1026.71 1026.75 1026.76 1026.71 1026.59 1026.37 1026.05 1025.60 1025.06 1024.41 1023.69 1022.91 1022.07 1021.19 1020.26 1019.27 1018.21 1017.06 1015.82 1014.47 1013.02 1011.51 1009.98 1008.46 1007.04 1005.76 1004.68 1003.84 1003.26 1002.94 1002.86
Thickness
5727 5711 5701 5707 5711 5710 5707 5700 5696 5702 5715 5706 5696 5695 5699 5703 5703 5700 5699 5700 5701 5703 5707 5708 5709 5709 5708 5707 5705 5704 5702 5700 5698 5695 5692 5690 5688 5688 5688 5688 5687 5686 5686 5685
5708 5704 5716 5721 5718 5713 5706 5697 5695 5702 5711 5704 5694 5692 5698 5701 5701 5702 5700 5699 5700 5700 5702 5703 5703 5704 5703 5702 5701 5699 5698 5696 5695 5692 5690 5687 5685 5683 5682 5682 5681 5681 5681 5680
5702 5710 5723 5718 5710 5704 5701 5697 5696 5695 5701 5702 5692 5683 5689 5696 5701 5702 5701 5700 5700 5700 5698 5698 5698 5697 5697 5696 5696 5695 5693 5692 5691 5689 5686 5683 5680 5677 5675 5675 5675 5675 5675 5674
5705 5715 5716 5710 5706 5703 5693 5707 5705 5698 5685 5675 5683 5663 5679 5687 5691 5694 5695 5695 5696 5698 5697 5695 5694 5693 5693 5693 5693 5691 5690 5688 5686 5684 5681 5677 5673 5669 5669 5669 5669 5669 5669 5668
5701 5710 5708 5703 5706 5708 5702 5710 5703 5697 5684 5674 5675 5663 5668 5681 5682 5687 5691 5693 5694 5696 5695 5693 5692 5691 5690 5690 5688 5687 5685 5683 5681 5679 5677 5673 5669 5666 5665 5665 5663 5662 5662 5662
5705 5715 5713 5709 5713 5713 5708 5700 5692 5680 5670 5659 5670 5661 5662 5672 5683 5688 5691 5691 5691 5692 5692 5691 5689 5688 5686 5685 5684 5682 5679 5677 5675 5674 5672 5668 5665 5663 5660 5658 5657 5656 5655 5655
5691 5701 5710 5713 5701 5702 5695 5674 5655 5652 5645 5651 5670 5663 5663 5681 5690 5691 5690 5689 5689 5689 5687 5686 5684 5682 5680 5679 5677 5676 5673 5671 5669 5668 5666 5664 5661 5659 5656 5654 5652 5651 5649 5649
5672 5674 5696 5704 5697 5689 5686 5673 5650 5641 5639 5648 5663 5658 5667 5685 5691 5692 5690 5688 5685 5683 5682 5681 5680 5678 5676 5674 5672 5670 5668 5665 5664 5662 5660 5659 5657 5655 5652 5651 5649 5647 5645 5644
5669 5671 5696 5703 5704 5696 5681 5671 5671 5654 5651 5643 5648 5659 5670 5680 5681 5683 5682 5681 5679 5678 5678 5677 5675 5673 5671 5670 5668 5665 5663 5660 5659 5657 5655 5653 5652 5650 5648 5647 5645 5643 5642 5640
5681 5671 5685 5695 5698 5695 5688 5676 5658 5649 5639 5632 5641 5647 5651 5664 5668 5672 5674 5674 5675 5675 5673 5672 5670 5669 5667 5665 5663 5661 5658 5656 5653 5652 5650 5649 5647 5646 5645 5642 5640 5639 5637 5635
5682 5667 5670 5678 5677 5674 5676 5671 5658 5645 5642 5631 5628 5639 5663 5664 5665 5665 5667 5669 5668 5667 5667 5666 5665 5663 5662 5660 5658 5655 5653 5650 5648 5646 5644 5643 5641 5641 5639 5638 5636 5634 5632 5630
5676 5660 5654 5665 5679 5684 5676 5668 5655 5641 5638 5634 5628 5636 5664 5665 5663 5662 5661 5662 5661 5661 5660 5660 5658 5656 5654 5652 5651 5649 5647 5645 5643 5641 5639 5637 5635 5634 5633 5631 5630 5628 5626 5625
5673 5655 5642 5646 5656 5667 5667 5667 5660 5648 5636 5629 5625 5635 5658 5658 5657 5656 5655 5655 5653 5653 5652 5650 5649 5647 5646 5644 5643 5642 5641 5639 5637 5635 5632 5630 5628 5627 5626 5625 5623 5622 5620 5618
5673 5652 5643 5639 5643 5652 5654 5659 5659 5646 5630 5627 5630 5635 5646 5647 5648 5648 5648 5648 5646 5645 5644 5642 5640 5640 5639 5638 5636 5635 5633 5632 5631 5629 5626 5623 5622 5621 5620 5619 5617 5615 5613 5611
5665 5650 5651 5651 5655 5654 5652 5653 5653 5646 5640 5632 5635 5635 5641 5643 5643 5643 5643 5641 5640 5638 5636 5635 5632 5631 5631 5630 5629 5628 5627 5625 5624 5621 5619 5617 5616 5614 5613 5611 5610 5608 5606 5605
5655 5649 5648 5646 5651 5649 5645 5649 5649 5646 5643 5637 5636 5635 5642 5641 5638 5636 5634 5634 5632 5631 5630 5628 5626 5624 5622 5622 5621 5621 5620 5619 5617 5614 5612 5610 5609 5607 5605 5604 5602 5600 5598 5597
5646 5642 5636 5631 5641 5641 5632 5642 5643 5641 5641 5637 5630 5633 5636 5632 5631 5629 5627 5627 5626 5625 5623 5621 5618 5617 5616 5615 5614 5613 5613 5612 5610 5608 5606 5604 5602 5600 5598 5598 5595 5592 5590 5589
5642 5635 5625 5623 5628 5619 5634 5647 5645 5639 5636 5637 5635 5633 5631 5628 5626 5625 5623 5621 5619 5618 5616 5614 5611 5610 5609 5608 5608 5607 5605 5604 5602 5601 5599 5597 5595 5593 5592 5590 5587 5585 5583 5581
5645 5634 5620 5613 5612 5618 5632 5640 5639 5633 5628 5632 5628 5625 5623 5621 5617 5614 5617 5616 5613 5612 5610 5608 5606 5604 5603 5602 5601 5599 5597 5596 5594 5593 5591 5590 5589 5587 5584 5583 5580 5578 5575 5574
5637 5630 5617 5609 5607 5607 5625 5637 5640 5631 5617 5625 5623 5619 5615 5611 5599 5599 5608 5607 5606 5604 5603 5601 5599 5597 5595 5594 5593 5591 5589 5587 5586 5585 5584 5583 5582 5580 5578 5576 5574 5572 5570 5568
5621 5614 5608 5604 5601 5608 5625 5632 5631 5610 5611 5620 5618 5614 5610 5602 5599 5599 5600 5599 5598 5596 5595 5593 5591 5588 5586 5585 5584 5582 5580 5579 5579 5578 5576 5575 5574 5573 5572 5570 5568 5565 5563 5561
5613 5606 5601 5598 5594 5603 5624 5622 5615 5613 5615 5614 5611 5608 5603 5598 5596 5594 5592 5590 5589 5587 5586 5584 5581 5579 5578 5577 5575 5573 5571 5571 5570 5569 5567 5566 5566 5566 5566 5563 5561 5559 5556 5552
5610 5610 5605 5603 5604 5613 5617 5616 5616 5613 5608 5607 5604 5601 5598 5593 5589 5587 5584 5581 5579 5578 5577 5574 5572 5570 5569 5568 5567 5564 5564 5563 5561 5560 5558 5558 5558 5557 5557 5556 5554 5551 5548 5545
5608 5609 5603 5599 5603 5607 5608 5608 5607 5606 5603 5601 5599 5595 5592 5586 5583 5579 5575 5572 5570 5568 5567 5565 5563 5561 5559 5558 5558 5557 5556 5555 5553 5551 5550 5550 5549 5549 5549 5548 5547 5545 5542 5540
5602 5602 5595 5592 5597 5598 5600 5599 5598 5598 5596 5594 5591 5588 5585 5580 5576 5571 5567 5564 5562 5560 5557 5556 5554 5552 5551 5551 5549 5548 5547 5546 5545 5543 5543 5542 5542 5541 5541 5540 5539 5539 5538 5537
5596 5594 5589 5588 5592 5588 5589 5592 5591 5588 5586 5584 5582 5578 5576 5573 5568 5564 5559 5556 5554 5551 5549 5547 5545 5544 5543 5543 5541 5541 5540 5538 5536 5535 5534 5533 5533 5532 5532 5531 5531 5532 5531 5531